Stations météo

réclame
Mon MeteoGroup
Quimper, France (7201): Température de l'air & dewpoint: 18.08.2019 02:00:00 - 24.08.2019 02:00:00 (CEST)Quimper, France (7201): Température de l'air 5cm: 18.08.2019 02:00:00 - 24.08.2019 02:00:00 (CEST)Quimper, France (7201): Température de l'air -20cm: 18.08.2019 02:00:00 - 24.08.2019 02:00:00 (CEST)Quimper, France (7201): Vitesse du vent & gusts: 18.08.2019 02:00:00 - 24.08.2019 02:00:00 (CEST)Quimper, France (7201): Direction du vent: 18.08.2019 02:00:00 - 24.08.2019 02:00:00 (CEST)Quimper, France (7201): reduced air pressure: 18.08.2019 02:00:00 - 24.08.2019 02:00:00 (CEST)Quimper, France (7201): visibility: 18.08.2019 02:00:00 - 24.08.2019 02:00:00 (CEST)Quimper, France (7201): Ensoleillement: 18.08.2019 02:00:00 - 24.08.2019 02:00:00 (CEST)Quimper, France (7201): Quantités de précipitations: 18.08.2019 02:00:00 - 24.08.2019 02:00:00 (CEST)
Date & Time tt [°C] td [°C] tt 5cm [°C] tt -20cm [°C] ff [km/h] ff [knt] fx [km/h] fx [knt] dd ppp [hPa] vv [km] sd [min] rr [mm]
24.08.2019 02:00:00 17,4 12,5 14,7 19,3 10 5 14 7 NE 1018,2 59 0 0,0
24.08.2019 01:00:00 18,2 12,9 15,0 19,3 10 5 13 7 NE 1018,3 60 0 0,0
24.08.2019 00:00:00 18,0 12,9 15,2 19,3 7 4 11 6 NE 1018,5 60 0 0,0
23.08.2019 23:00:00 19,7 12,5 16,4 19,3 8 4 9 5 NNE 1018,8 60 0 0,0
23.08.2019 22:00:00 20,2 12,7 16,8 19,2 5 3 6 4 NNE 1019,1 60 0 0,0
23.08.2019 21:00:00 23,4 12,7 21,8 19,1 4 2 6 3 SSE 1019,1 60 52 0,0
23.08.2019 20:00:00 25,7 12,5 28,0 19,0 5 3 13 7 SSE 1019,1 58 60 0,0
23.08.2019 19:00:00 26,5 12,5 29,1 18,8 9 5 17 9 SSE 1019,4 52 60 0,0
23.08.2019 18:00:00 26,7 10,8 29,4 18,6 12 6 22 12 S 1019,9 56 58 0,0
23.08.2019 17:00:00 27,6 10,8 30,0 18,5 12 6 26 14 S 1020,2 45 60 0,0
23.08.2019 16:00:00 26,9 10,6 27,8 18,3 14 8 28 15 SE 1020,6 60 55 0,0
23.08.2019 15:00:00 26,9 12,5 28,9 18,2 16 9 28 15 SSE 1021,1 48 60 0,0
23.08.2019 14:00:00 26,4 12,8 27,6 18,2 14 8 26 14 ESE 1021,3 18 60 0,0
23.08.2019 13:00:00 25,0 12,2 27,1 18,1 14 8 27 14 SE 1021,7 49 60 0,0
23.08.2019 12:00:00 24,1 12,7 25,4 18,2 10 6 21 11 ESE 1022,2 57 60 0,0
23.08.2019 11:00:00 22,2 13,8 22,4 18,2 8 5 15 8 ESE 1022,5 46 60 0,0
23.08.2019 10:00:00 18,9 13,7 19,7 18,3 9 5 13 7 ENE 1022,9 49 60 0,0
23.08.2019 09:00:00 16,5 12,5 12,6 18,4 7 4 11 6 ENE 1023,2 32 52 0,0
23.08.2019 08:00:00 13,5 11,2 11,1 18,5 9 5 14 8 NE 1023,4 37 4 0,0
23.08.2019 07:00:00 13,6 11,1 11,2 18,6 10 5 15 8 NE 1023,4 45 0 0,0
23.08.2019 06:00:00 13,3 11,0 11,2 18,7 10 5 14 8 NE 1023,5 42 0 0,0
23.08.2019 05:00:00 13,8 11,3 11,2 18,8 10 5 16 9 NE 1023,9 44 0 0,0
23.08.2019 04:00:00 13,4 11,1 11,6 18,9 10 6 16 9 NE 1024,3 44 0 0,0
23.08.2019 03:00:00 13,4 11,1 11,3 18,9 9 5 13 7 NE 1024,6 48 0 0,0
23.08.2019 02:00:00 13,8 11,5 12,2 19,0 6 4 16 8 NE 1025,1 47 0 0,0
23.08.2019 01:00:00 14,1 12,0 12,7 19,0 9 5 18 10 NE 1025,3 43 0 0,0
23.08.2019 00:00:00 15,2 12,3 14,1 19,0 13 7 19 10 NNE 1025,5 47 0 0,0
22.08.2019 23:00:00 16,0 12,7 14,7 19,0 11 6 16 8 NNE 1025,7 52 0 0,0
22.08.2019 22:00:00 17,2 13,1 15,7 18,9 9 5 14 8 NNE 1025,5 53 0 0,0
22.08.2019 21:00:00 18,7 12,4 17,9 18,8 9 5 18 10 NW 1025,0 58 42 0,0
22.08.2019 20:00:00 20,8 12,5 22,2 18,6 10 5 21 12 NW 1025,0 57 60 0,0
22.08.2019 19:00:00 22,7 13,2 24,5 18,4 13 7 21 12 W 1024,9 58 60 0,0
22.08.2019 18:00:00 24,0 13,8 26,1 18,2 13 7 20 11 WSW 1025,1 54 60 0,0
22.08.2019 17:00:00 23,9 13,1 26,6 18,1 14 7 23 13 SW 1025,2 37 60 0,0
22.08.2019 16:00:00 24,6 11,5 28,6 17,9 8 4 15 8 WSW 1025,5 55 60 0,0
22.08.2019 15:00:00 24,1 11,1 26,6 17,8 4 2 13 7 N 1025,7 58 60 0,0
22.08.2019 14:00:00 22,8 10,6 27,0 17,8 6 3 13 7 N 1026,2 60 60 0,0
22.08.2019 13:00:00 22,6 11,6 25,6 17,8 5 3 13 7 NNE 1026,3 58 60 0,0
22.08.2019 12:00:00 21,2 12,9 25,0 17,8 5 3 11 6 N 1026,5 53 60 0,0
22.08.2019 11:00:00 19,1 12,6 22,0 17,9 6 3 10 5 NE 1026,6 50 60 0,0
22.08.2019 10:00:00 16,8 11,7 19,9 18,0 6 4 10 5 NNE 1026,6 20 60 0,0
22.08.2019 09:00:00 14,7 11,5 13,4 18,1 4 2 10 5 NNE 1026,5 20 60 0,0
22.08.2019 08:00:00 11,9 9,6 9,0 18,2 8 4 10 6 NNE 1026,1 48 16 0,0
22.08.2019 07:00:00 11,3 9,2 8,8 18,3 9 5 10 6 NNE 1026,0 51 0 0,0
22.08.2019 06:00:00 11,4 9,5 8,8 18,4 7 4 10 5 NNE 1025,9 49 0 0,0
22.08.2019 05:00:00 11,6 9,8 9,3 18,6 8 4 9 5 NNE 1026,0 47 0 0,0
22.08.2019 04:00:00 12,0 10,1 9,4 18,6 7 4 9 5 NNE 1026,1 45 0 0,0
22.08.2019 03:00:00 12,2 10,3 10,1 18,7 7 4 11 6 NNE 1026,2 48 0 0,0
22.08.2019 02:00:00 12,9 10,6 11,0 18,8 7 4 12 6 NNE 1026,4 48 0 0,0
22.08.2019 01:00:00 13,3 10,7 11,7 18,8 9 5 13 7 NNE 1026,5 49 0 0,0
22.08.2019 00:00:00 14,3 11,3 12,6 18,8 9 5 14 8 NNE 1026,4 50 0 0,0
21.08.2019 23:00:00 15,4 12,2 13,2 18,7 9 5 12 6 NNE 1026,4 48 0 0,0
21.08.2019 22:00:00 16,5 11,6 14,3 18,7 8 4 15 8 NNW 1026,2 60 0 0,0
21.08.2019 21:00:00 18,6 10,9 17,3 18,5 8 4 13 7 NW 1025,7 60 55 0,0
21.08.2019 20:00:00 20,9 11,8 22,3 18,4 9 5 18 10 W 1025,5 59 60 0,0
21.08.2019 19:00:00 22,8 9,6 25,6 18,2 7 4 16 9 SSW 1025,4 53 60 0,0
21.08.2019 18:00:00 23,0 9,7 26,2 18,0 2 1 18 10 W 1025,6 44 60 0,0
21.08.2019 17:00:00 23,3 8,9 26,4 17,8 6 4 20 11 SE 1025,9 20 60 0,0
21.08.2019 16:00:00 23,3 11,0 26,8 17,7 12 6 22 12 SW 1026,0 30 60 0,0
21.08.2019 15:00:00 23,2 10,9 24,6 17,5 12 6 19 11 SSE 1026,2 60 57 0,0
21.08.2019 14:00:00 22,5 10,6 24,8 17,5 10 6 20 11 S 1026,4 20 60 0,0
21.08.2019 13:00:00 21,3 11,0 23,4 17,5 11 6 21 11 ESE 1026,7 60 60 0,0
21.08.2019 12:00:00 20,3 11,5 21,2 17,5 11 6 21 12 ESE 1027,0 60 60 0,0
21.08.2019 11:00:00 18,0 12,4 19,9 17,6 8 4 15 8 E 1027,3 56 60 0,0
21.08.2019 10:00:00 15,1 11,9 15,5 17,7 9 5 16 9 ENE 1027,6 20 46 0,0
21.08.2019 09:00:00 12,5 11,2 10,0 17,8 7 4 12 7 NE 1028,1 20 19 0,0
21.08.2019 08:00:00 10,5 9,9 9,4 17,9 0 0 10 5 N 1028,1 18 0 0,2
21.08.2019 07:00:00 10,7 10,1 9,3 18,0 7 4 10 5 NNE 1027,7 17 0 0,0
21.08.2019 06:00:00 11,2 10,4 10,0 18,1 8 4 11 6 NNE 1027,6 20 0 0,0
21.08.2019 05:00:00 10,9 10,1 9,4 18,1 7 4 12 6 NNE 1027,6 29 0 0,0
21.08.2019 04:00:00 10,8 9,9 9,3 18,2 8 4 11 6 NNE 1027,8 32 0 0,0
21.08.2019 03:00:00 10,9 9,8 9,4 18,3 8 4 15 8 NNE 1028,0 33 0 0,0
21.08.2019 02:00:00 11,5 10,1 10,1 18,3 9 5 13 7 NNE 1028,4 39 0 0,0
21.08.2019 01:00:00 12,1 10,0 10,5 18,3 10 5 12 7 NNE 1028,7 41 0 0,0
21.08.2019 00:00:00 12,8 9,8 10,9 18,4 8 5 13 7 NNE 1028,7 47 0 0,0
20.08.2019 23:00:00 13,0 9,8 11,6 18,4 8 4 14 7 NNE 1028,7 48 0 0,0
20.08.2019 22:00:00 14,1 11,1 12,2 18,3 7 4 16 8 NNE 1028,3 38 0 0,0
20.08.2019 21:00:00 16,1 11,3 15,6 18,2 11 6 23 12 NW 1027,8 43 43 0,0
20.08.2019 20:00:00 17,7 10,1 19,1 18,1 17 9 28 15 NW 1027,4 19 60 0,0
20.08.2019 19:00:00 18,7 10,3 21,3 17,9 16 9 24 13 NNW 1027,1 31 60 0,0
20.08.2019 18:00:00 19,4 10,7 21,8 17,7 17 9 29 16 NW 1027,2 60 60 0,0
20.08.2019 17:00:00 19,7 10,7 23,1 17,6 18 10 28 15 NW 1027,0 48 60 0,0
20.08.2019 16:00:00 20,2 9,4 20,5 17,4 17 9 35 19 NW 1027,0 20 43 0,0
20.08.2019 15:00:00 20,1 9,3 24,0 17,3 11 6 29 16 NW 1026,8 50 60 0,0
20.08.2019 14:00:00 20,3 10,1 23,6 17,2 9 5 18 10 WNW 1026,6 57 58 0,0
20.08.2019 13:00:00 19,4 9,6 20,8 17,3 9 5 16 8 NNW 1026,8 37 54 0,0
20.08.2019 12:00:00 19,1 11,4 22,6 17,3 8 4 14 7 NNW 1026,6 57 58 0,0
20.08.2019 11:00:00 16,7 11,6 17,6 17,4 5 3 12 7 WNW 1026,5 20 40 0,0
20.08.2019 10:00:00 15,4 14,4 17,2 17,4 2 1 5 3 W 1026,1 33 60 0,0
20.08.2019 09:00:00 12,5 12,5 9,5 17,6 0 0 3 2 N 1025,8 17 60 0,0
20.08.2019 08:00:00 9,5 9,4 6,8 17,7 0 0 3 2 N 1025,4 18 19 0,0
20.08.2019 07:00:00 9,2 9,1 7,1 17,8 0 0 2 1 N 1024,7 15 0 0,0
20.08.2019 06:00:00 9,9 9,7 6,4 17,9 0 0 2 1 N 1024,2 1,1 0 0,0
20.08.2019 05:00:00 9,9 9,6 7,1 18,0 0 0 4 2 N 1024,0 0,3 0 0,0
20.08.2019 04:00:00 10,7 10,5 7,8 18,1 0 0 3 2 N 1023,8 1,0 0 0,2
20.08.2019 03:00:00 10,8 10,3 8,5 18,1 0 0 6 3 N 1023,9 12 0 0,0
20.08.2019 02:00:00 11,6 11,0 9,6 18,2 5 3 12 6 WNW 1023,9 39 0 0,0
20.08.2019 01:00:00 11,9 11,1 10,4 18,2 9 5 11 6 WNW 1023,7 51 0 0,0
20.08.2019 00:00:00 12,4 11,6 10,3 18,2 5 3 12 6 WNW 1023,5 51 0 0,0
19.08.2019 23:00:00 12,6 11,5 11,3 18,2 9 5 11 6 WNW 1023,4 50 0 0,0
19.08.2019 22:00:00 13,6 11,8 12,2 18,1 6 3 16 9 W 1023,1 53 0 0,0
19.08.2019 21:00:00 16,0 12,2 15,2 18,0 10 5 21 11 W 1022,2 58 60 0,0
19.08.2019 20:00:00 17,8 12,0 18,9 17,9 16 9 26 14 W 1021,9 41 60 0,0
19.08.2019 19:00:00 18,6 12,3 20,5 17,8 20 11 32 18 W 1021,7 60 60 0,0
19.08.2019 18:00:00 19,6 11,1 22,2 17,7 19 10 32 17 W 1021,5 59 60 0,0
19.08.2019 17:00:00 19,8 9,7 21,4 17,6 22 12 33 18 W 1021,2 51 58 0,0
19.08.2019 16:00:00 19,3 12,1 20,2 17,5 18 10 34 18 W 1021,1 53 47 0,0
19.08.2019 15:00:00 18,7 12,7 18,6 17,5 20 11 34 19 W 1021,1 56 37 0,0
19.08.2019 14:00:00 18,7 13,3 18,7 17,4 16 9 32 18 W 1020,7 60 14 0,0
19.08.2019 13:00:00 18,3 12,5 18,3 17,4 19 10 29 16 W 1020,6 33 28 0,0
19.08.2019 12:00:00 17,9 13,8 16,4 17,5 14 8 27 14 WSW 1020,3 56 21 0,0
19.08.2019 11:00:00 16,1 13,8 14,6 17,6 14 7 25 14 W 1019,9 20 12 0,4
19.08.2019 10:00:00 16,3 13,6 17,4 17,6 11 6 19 10 W 1019,2 20 58 0,0
19.08.2019 09:00:00 13,6 13,4 11,6 17,7 4 2 8 5 SW 1019,2 16 22 0,0
19.08.2019 08:00:00 12,3 12,1 9,6 17,8 5 3 7 4 WSW 1018,7 13 17 0,0
19.08.2019 07:00:00 11,5 11,0 9,8 17,9 5 3 9 5 W 1018,1 11 0 0,0
19.08.2019 06:00:00 12,2 11,7 10,9 17,9 7 4 11 6 WSW 1017,8 14 0 0,0
19.08.2019 05:00:00 12,4 11,6 11,4 18,1 8 5 14 8 W 1017,4 20 0 0,2
19.08.2019 04:00:00 12,5 11,9 11,6 18,1 8 4 11 6 W 1017,7 16 0 0,0
19.08.2019 03:00:00 12,8 12,0 11,8 18,1 7 4 11 6 W 1017,5 18 0 0,0
19.08.2019 02:00:00 13,3 12,5 12,2 18,2 9 5 13 7 W 1017,5 16 0 0,0
19.08.2019 01:00:00 13,0 12,2 12,0 18,2 7 4 9 5 WSW 1017,3 17 0 0,0
19.08.2019 00:00:00 13,4 12,3 12,6 18,2 6 3 11 6 SW 1016,8 19 0 0,0
18.08.2019 23:00:00 14,0 12,6 13,4 18,2 9 5 16 8 WSW 1016,4 19 0 0,0
18.08.2019 22:00:00 14,4 12,4 13,7 18,2 9 5 23 13 W 1015,8 20 0 0,0
18.08.2019 21:00:00 15,8 12,5 15,4 18,1 14 8 35 19 W 1015,2 38 50 0,0
18.08.2019 20:00:00 16,8 12,1 17,2 18,0 22 12 44 24 W 1014,6 20 47 0,0
18.08.2019 19:00:00 17,8 12,3 19,0 17,9 28 15 46 25 W 1014,2 20 55 0,0
18.08.2019 18:00:00 18,4 12,4 18,7 17,8 30 16 48 26 W 1014,0 20 55 0,0
18.08.2019 17:00:00 18,6 12,1 19,2 17,7 30 16 49 27 W 1013,8 20 48 0,0
18.08.2019 16:00:00 19,4 12,4 20,0 17,6 26 14 47 25 W 1013,3 20 52 0,0
18.08.2019 15:00:00 19,2 12,0 20,9 17,5 26 14 41 22 W 1012,9 19 58 0,0
18.08.2019 14:00:00 18,9 11,5 19,1 17,5 29 16 43 23 W 1012,5 20 45 0,0
18.08.2019 13:00:00 19,2 11,5 17,8 17,5 24 13 36 19 W 1011,9 44 33 0,0
18.08.2019 12:00:00 17,2 12,3 17,4 17,5 22 12 37 20 WNW 1011,5 47 20 0,0
18.08.2019 11:00:00 17,5 12,6 17,8 17,6 18 10 35 19 W 1010,9 19 51 0,0
18.08.2019 10:00:00 16,9 13,6 16,6 17,6 16 9 28 15 WNW 1010,1 35 55 0,0
18.08.2019 09:00:00 15,6 14,5 14,6 17,7 11 6 17 9 W 1009,1 37 56 0,0
18.08.2019 08:00:00 13,8 13,3 13,3 17,7 11 6 24 13 WNW 1008,2 20 6 0,0
18.08.2019 07:00:00 14,3 13,5 13,9 17,8 16 9 34 18 WNW 1007,5 48 0 0,0
18.08.2019 06:00:00 14,8 14,3 14,2 17,8 16 9 27 14 WNW 1006,6 60 0 0,0
18.08.2019 05:00:00 14,3 14,1 12,9 17,9 13 7 39 21 WNW 1006,1 60 0 0,0
18.08.2019 04:00:00 13,7 13,5 13,0 18,0 4 2 21 11 NNE 1004,5 60 0 0,0
18.08.2019 03:00:00 13,9 13,9 13,7 18,1 13 7 19 10 NNE 1004,9 20 0 1,9
18.08.2019 02:00:00 13,8 13,8 13,7 18,2 12 6 21 11 NE 1005,0 4,2 0 6,0

tt = Température de l'air
td = dewpoint
tt 5cm = Température de l'air 5cm
tt -20cm = Température de l'air -20cm
ff = Vitesse du vent
fx = gusts
dd = Direction du vent
ppp = reduced air pressure
vv = visibility
sd = Ensoleillement
rr = Quantités de précipitations

stations d'obs. à proximité